HST
1 20580U 90037B 24292.91484026 .00016342 00000-0 72066-3 0 9997
2 20580 28.4687 234.7642 0002725 308.3897 51.6451 15.20338793695861
ISS (ZARYA)
1 25544U 98067A 24293.34170017 -.00128572 00000-0 -22749-2 0 9996
2 25544 51.6329 60.4502 0009132 85.0249 318.3933 15.50032711477809
CXO
1 25867U 99040B 24292.14899531 .00000890 00000-0 00000-0 0 9996
2 25867 43.8911 143.9268 8763916 302.7950 0.4259 0.37813126 15024